Find Starlink 32686

NORAD ID: 62192 Int'l Des: 2024-229 Owner: SPXS Country: US Constellation: starlink operational
LEOCIRCULAR

現在のビュー

3D地球を読み込み中...

About Starlink 32686

Starlink 32686 (NORAD 62192) is a starlink constellation satellite (v2 mini) launched Dec 4, 2024 by SPXS of US. It operates in LEO, CIRCULAR orbit with a mass of 730.00 kg.

次回通過

Passes for default location (London). Set your location on the main map for personalized predictions.

高度履歴

Loading altitude history...

軌道要素

1 62192U 24229A 26263.41251164 .00006461 00000-0 24405-3 0 9997
2 62192 43.0023 247.4062 0001415 276.3544 83.7147 15.27586634100380
Epoch: Sep 20, 2026 • Age: 12 hours

現在のステータス

高度 492.3 km
遠地点 / 近地点 N/A
速度 7.62 km/s
衛星直下点 -35.38°S, 137.55°W
打ち上げ日 Dec 4, 2024
運用期間 1.7 years
タイプ internet

技術仕様

分類 Payload
質量 730.00 kg
乾燥質量 700.00 kg
長さ 0.30 m
スパン 29.00 m
形状 ? Box + pan
製造者 SPXS
バスタイプ Starlink V2M
フェーズステータス In Orbit
所有者/国 SPXS/US

Most Searched